Year,Month,Day,Hour,Minute,Value (Times are PST for temperature in C)
2015,03,13,00,00,10.70
2015,03,13,00,01,10.70
2015,03,13,00,02,10.70
2015,03,13,00,03,10.70
2015,03,13,00,04,10.70
2015,03,13,00,05,10.70
2015,03,13,00,06,10.70
2015,03,13,00,07,10.70
2015,03,13,00,08,10.70
2015,03,13,00,09,10.60
2015,03,13,00,10,10.60
2015,03,13,00,11,10.60
2015,03,13,00,12,10.60
2015,03,13,00,13,10.60
2015,03,13,00,14,10.60
2015,03,13,00,15,10.50
2015,03,13,00,16,10.50
2015,03,13,00,17,10.50
2015,03,13,00,18,10.40
2015,03,13,00,19,10.40
2015,03,13,00,20,10.40
2015,03,13,00,21,10.40
2015,03,13,00,22,10.30
2015,03,13,00,23,10.30
2015,03,13,00,24,10.30
2015,03,13,00,25,10.30
2015,03,13,00,26,10.20
2015,03,13,00,27,10.20
2015,03,13,00,28,10.30
2015,03,13,00,29,10.30
2015,03,13,00,30,10.30
2015,03,13,00,31,10.30
2015,03,13,00,32,10.30
2015,03,13,00,33,10.40
2015,03,13,00,34,10.40
2015,03,13,00,35,10.40
2015,03,13,00,36,10.40
2015,03,13,00,37,10.40
2015,03,13,00,38,10.40
2015,03,13,00,39,10.40
2015,03,13,00,40,10.40
2015,03,13,00,41,10.40
2015,03,13,00,42,10.40
2015,03,13,00,43,10.40
2015,03,13,00,44,10.40
2015,03,13,00,45,10.40
2015,03,13,00,46,10.40
2015,03,13,00,47,10.40
2015,03,13,00,48,10.40
2015,03,13,00,49,10.30
2015,03,13,00,50,10.30
2015,03,13,00,51,10.30
2015,03,13,00,52,10.30
2015,03,13,00,53,10.30
2015,03,13,00,54,10.30
2015,03,13,00,55,10.40
2015,03,13,00,56,10.40
2015,03,13,00,57,10.40
2015,03,13,00,58,10.40
2015,03,13,00,59,10.50
2015,03,13,01,00,10.50
2015,03,13,01,01,10.50
2015,03,13,01,02,10.50
2015,03,13,01,03,10.50
2015,03,13,01,04,10.50
2015,03,13,01,05,10.40
2015,03,13,01,06,10.40
2015,03,13,01,07,10.40
2015,03,13,01,08,10.40
2015,03,13,01,09,10.50
2015,03,13,01,10,10.50
2015,03,13,01,11,10.50
2015,03,13,01,12,10.50
2015,03,13,01,13,10.50
2015,03,13,01,14,10.50
2015,03,13,01,15,10.50
2015,03,13,01,16,10.50
2015,03,13,01,17,10.50
2015,03,13,01,18,10.50
2015,03,13,01,19,10.50
2015,03,13,01,20,10.50
2015,03,13,01,21,10.50
2015,03,13,01,22,10.50
2015,03,13,01,23,10.40
2015,03,13,01,24,10.50
2015,03,13,01,25,10.50
2015,03,13,01,26,10.50
2015,03,13,01,27,10.50
2015,03,13,01,28,10.40
2015,03,13,01,29,10.40
2015,03,13,01,30,10.40
2015,03,13,01,31,10.40
2015,03,13,01,32,10.40
2015,03,13,01,33,10.40
2015,03,13,01,34,10.40
2015,03,13,01,35,10.40
2015,03,13,01,36,10.40
2015,03,13,01,37,10.40
2015,03,13,01,38,10.40
2015,03,13,01,39,10.40
2015,03,13,01,40,10.40
2015,03,13,01,41,10.40
2015,03,13,01,42,10.40
2015,03,13,01,43,10.40
2015,03,13,01,44,10.40
2015,03,13,01,45,10.30
2015,03,13,01,46,10.30
2015,03,13,01,47,10.30
2015,03,13,01,48,10.30
2015,03,13,01,49,10.30
2015,03,13,01,50,10.30
2015,03,13,01,51,10.30
2015,03,13,01,52,10.30
2015,03,13,01,53,10.30
2015,03,13,01,54,10.20
2015,03,13,01,55,10.20
2015,03,13,01,56,10.20
2015,03,13,01,57,10.20
2015,03,13,01,58,10.20
2015,03,13,01,59,10.20
2015,03,13,02,00,10.20
2015,03,13,02,01,10.10
2015,03,13,02,02,10.10
2015,03,13,02,03,10.10
2015,03,13,02,04,10.10
2015,03,13,02,05,10.10
2015,03,13,02,06,10.10
2015,03,13,02,07,10.10
2015,03,13,02,08,10.20
2015,03,13,02,09,10.20
2015,03,13,02,10,10.20
2015,03,13,02,11,10.20
2015,03,13,02,12,10.20
2015,03,13,02,13,10.20
2015,03,13,02,14,10.20
2015,03,13,02,15,10.20
2015,03,13,02,16,10.20
2015,03,13,02,17,10.20
2015,03,13,02,18,10.20
2015,03,13,02,19,10.20
2015,03,13,02,20,10.20
2015,03,13,02,21,10.20
2015,03,13,02,22,10.10
2015,03,13,02,23,10.10
2015,03,13,02,24,10.10
2015,03,13,02,25,10.10
2015,03,13,02,26,10.10
2015,03,13,02,27,10.10
2015,03,13,02,28,10.10
2015,03,13,02,29,10.10
2015,03,13,02,30,10.10
2015,03,13,02,31,10.10
2015,03,13,02,32,10.10
2015,03,13,02,33,10.10
2015,03,13,02,34,10.10
2015,03,13,02,35,10.00
2015,03,13,02,36,10.00
2015,03,13,02,37,9.90
2015,03,13,02,38,9.90
2015,03,13,02,39,9.80
2015,03,13,02,40,9.80
2015,03,13,02,41,9.80
2015,03,13,02,42,9.70
2015,03,13,02,43,9.70
2015,03,13,02,44,9.70
2015,03,13,02,45,9.60
2015,03,13,02,46,9.50
2015,03,13,02,47,9.50
2015,03,13,02,48,9.40
2015,03,13,02,49,9.30
2015,03,13,02,50,9.30
2015,03,13,02,51,9.30
2015,03,13,02,52,9.30
2015,03,13,02,53,9.30
2015,03,13,02,54,9.20
2015,03,13,02,55,9.20
2015,03,13,02,56,9.20
2015,03,13,02,57,9.10
2015,03,13,02,58,9.10
2015,03,13,02,59,9.10
2015,03,13,03,00,9.10
2015,03,13,03,01,9.00
2015,03,13,03,02,9.00
2015,03,13,03,03,9.00
2015,03,13,03,04,9.10
2015,03,13,03,05,9.20
2015,03,13,03,06,9.20
2015,03,13,03,07,9.30
2015,03,13,03,08,9.40
2015,03,13,03,09,9.40
2015,03,13,03,10,9.50
2015,03,13,03,11,9.60
2015,03,13,03,12,9.60
2015,03,13,03,13,9.60
2015,03,13,03,14,9.60
2015,03,13,03,15,9.60
2015,03,13,03,16,9.70
2015,03,13,03,17,9.70
2015,03,13,03,18,9.70
2015,03,13,03,19,9.70
2015,03,13,03,20,9.70
2015,03,13,03,21,9.70
2015,03,13,03,22,9.70
2015,03,13,03,23,9.60
2015,03,13,03,24,9.60
2015,03,13,03,25,9.70
2015,03,13,03,26,9.60
2015,03,13,03,27,9.60
2015,03,13,03,28,9.60
2015,03,13,03,29,9.60
2015,03,13,03,30,9.60
2015,03,13,03,31,9.60
2015,03,13,03,32,9.60
2015,03,13,03,33,9.60
2015,03,13,03,34,9.60
2015,03,13,03,35,9.60
2015,03,13,03,36,9.70
2015,03,13,03,37,9.70
2015,03,13,03,38,9.70
2015,03,13,03,39,9.70
2015,03,13,03,40,9.70
2015,03,13,03,41,9.80
2015,03,13,03,42,9.80
2015,03,13,03,43,9.80
2015,03,13,03,44,9.90
2015,03,13,03,45,9.90
2015,03,13,03,46,9.90
2015,03,13,03,47,9.90
2015,03,13,03,48,9.90
2015,03,13,03,49,9.90
2015,03,13,03,50,9.90
2015,03,13,03,51,9.80
2015,03,13,03,52,9.80
2015,03,13,03,53,9.80
2015,03,13,03,54,9.70
2015,03,13,03,55,9.70
2015,03,13,03,56,9.60
2015,03,13,03,57,9.50
2015,03,13,03,58,9.40
2015,03,13,03,59,9.30
2015,03,13,04,00,9.20
2015,03,13,04,01,9.10
2015,03,13,04,02,9.00
2015,03,13,04,03,9.00
2015,03,13,04,04,9.00
2015,03,13,04,05,8.90
2015,03,13,04,06,8.90
2015,03,13,04,07,8.90
2015,03,13,04,08,9.00
2015,03,13,04,09,9.00
2015,03,13,04,10,9.10
2015,03,13,04,11,9.10
2015,03,13,04,12,9.20
2015,03,13,04,13,9.30
2015,03,13,04,14,9.40
2015,03,13,04,15,9.40
2015,03,13,04,16,9.40
2015,03,13,04,17,9.50
2015,03,13,04,18,9.50
2015,03,13,04,19,9.50
2015,03,13,04,20,9.50
2015,03,13,04,21,9.50
2015,03,13,04,22,9.50
2015,03,13,04,23,9.50
2015,03,13,04,24,9.40
2015,03,13,04,25,9.40
2015,03,13,04,26,9.30
2015,03,13,04,27,9.30
2015,03,13,04,28,9.30
2015,03,13,04,29,9.20
2015,03,13,04,30,9.20
2015,03,13,04,31,9.20
2015,03,13,04,32,9.20
2015,03,13,04,33,9.20
2015,03,13,04,34,9.10
2015,03,13,04,35,9.10
2015,03,13,04,36,9.10
2015,03,13,04,37,9.00
2015,03,13,04,38,9.00
2015,03,13,04,39,8.90
2015,03,13,04,40,8.90
2015,03,13,04,41,8.90
2015,03,13,04,42,8.80
2015,03,13,04,43,8.80
2015,03,13,04,44,8.80
2015,03,13,04,45,8.80
2015,03,13,04,46,8.80
2015,03,13,04,47,8.80
2015,03,13,04,48,8.80
2015,03,13,04,49,8.80
2015,03,13,04,50,8.80
2015,03,13,04,51,8.80
2015,03,13,04,52,8.80
2015,03,13,04,53,8.80
2015,03,13,04,54,8.80
2015,03,13,04,55,8.80
2015,03,13,04,56,8.80
2015,03,13,04,57,8.80
2015,03,13,04,58,8.80
2015,03,13,04,59,8.70
2015,03,13,05,00,8.70
2015,03,13,05,01,8.70
2015,03,13,05,02,8.60
2015,03,13,05,03,8.60
2015,03,13,05,04,8.60
2015,03,13,05,05,8.60
2015,03,13,05,06,8.50
2015,03,13,05,07,8.50
2015,03,13,05,08,8.50
2015,03,13,05,09,8.50
2015,03,13,05,10,8.40
2015,03,13,05,11,8.40
2015,03,13,05,12,8.40
2015,03,13,05,13,8.30
2015,03,13,05,14,8.30
2015,03,13,05,15,8.30
2015,03,13,05,16,8.20
2015,03,13,05,17,8.20
2015,03,13,05,18,8.20
2015,03,13,05,19,8.20
2015,03,13,05,20,8.10
2015,03,13,05,21,8.10
2015,03,13,05,22,8.00
2015,03,13,05,23,8.00
2015,03,13,05,24,8.00
2015,03,13,05,25,8.00
2015,03,13,05,26,7.90
2015,03,13,05,27,7.90
2015,03,13,05,28,7.90
2015,03,13,05,29,7.90
2015,03,13,05,30,7.90
2015,03,13,05,31,7.90
2015,03,13,05,32,7.90
2015,03,13,05,33,7.90
2015,03,13,05,34,7.90
2015,03,13,05,35,7.90
2015,03,13,05,36,7.90
2015,03,13,05,37,7.90
2015,03,13,05,38,7.90
2015,03,13,05,39,7.90
2015,03,13,05,40,7.80
2015,03,13,05,41,7.80
2015,03,13,05,42,7.80
2015,03,13,05,43,7.80
2015,03,13,05,44,7.80
2015,03,13,05,45,7.80
2015,03,13,05,46,7.80
2015,03,13,05,47,7.80
2015,03,13,05,48,7.80
2015,03,13,05,49,7.80
2015,03,13,05,50,7.80
2015,03,13,05,51,7.80
2015,03,13,05,52,7.80
2015,03,13,05,53,7.80
2015,03,13,05,54,7.70
2015,03,13,05,55,7.70
2015,03,13,05,56,7.70
2015,03,13,05,57,7.70
2015,03,13,05,58,7.70
2015,03,13,05,59,7.70
2015,03,13,06,00,7.70
2015,03,13,06,01,7.70
2015,03,13,06,02,7.70
2015,03,13,06,03,7.70
2015,03,13,06,04,7.70
2015,03,13,06,05,7.70
2015,03,13,06,06,7.70
2015,03,13,06,07,7.70
2015,03,13,06,08,7.70
2015,03,13,06,09,7.70
2015,03,13,06,10,7.80
2015,03,13,06,11,7.80
2015,03,13,06,12,7.80
2015,03,13,06,13,7.80
2015,03,13,06,14,7.80
2015,03,13,06,15,7.80
2015,03,13,06,16,7.80
2015,03,13,06,17,7.80
2015,03,13,06,18,7.80
2015,03,13,06,19,7.80
2015,03,13,06,20,7.80
2015,03,13,06,21,7.80
2015,03,13,06,22,7.70
2015,03,13,06,23,7.70
2015,03,13,06,24,7.70
2015,03,13,06,25,7.70
2015,03,13,06,26,7.70
2015,03,13,06,27,7.70
2015,03,13,06,28,7.70
2015,03,13,06,29,7.70
2015,03,13,06,30,7.70
2015,03,13,06,31,7.70
2015,03,13,06,32,7.70
2015,03,13,06,33,7.70
2015,03,13,06,34,7.70
2015,03,13,06,35,7.70
2015,03,13,06,36,7.70
2015,03,13,06,37,7.70
2015,03,13,06,38,7.70
2015,03,13,06,39,7.60
2015,03,13,06,40,7.60
2015,03,13,06,41,7.60
2015,03,13,06,42,7.60
2015,03,13,06,43,7.50
2015,03,13,06,44,7.50
2015,03,13,06,45,7.40
2015,03,13,06,46,7.40
2015,03,13,06,47,7.40
2015,03,13,06,48,7.40
2015,03,13,06,49,7.40
2015,03,13,06,50,7.40
2015,03,13,06,51,7.30
2015,03,13,06,52,7.30
2015,03,13,06,53,7.30
2015,03,13,06,54,7.30
2015,03,13,06,55,7.30
2015,03,13,06,56,7.30
2015,03,13,06,57,7.20
2015,03,13,06,58,7.20
2015,03,13,06,59,7.20
2015,03,13,07,00,7.20
2015,03,13,07,01,7.20
2015,03,13,07,02,7.20
2015,03,13,07,03,7.20
2015,03,13,07,04,7.30
2015,03,13,07,05,7.30
2015,03,13,07,06,7.30
2015,03,13,07,07,7.30
2015,03,13,07,08,7.30
2015,03,13,07,09,7.30
2015,03,13,07,10,7.30
2015,03,13,07,11,7.30
2015,03,13,07,12,7.30
2015,03,13,07,13,7.30
2015,03,13,07,14,7.30
2015,03,13,07,15,7.30
2015,03,13,07,16,7.30
2015,03,13,07,17,7.20
2015,03,13,07,18,7.20
2015,03,13,07,19,7.20
2015,03,13,07,20,7.10
2015,03,13,07,21,7.10
2015,03,13,07,22,7.10
2015,03,13,07,23,7.10
2015,03,13,07,24,7.00
2015,03,13,07,25,7.00
2015,03,13,07,26,7.00
2015,03,13,07,27,6.90
2015,03,13,07,28,6.90
2015,03,13,07,29,6.90
2015,03,13,07,30,6.90
2015,03,13,07,31,6.90
2015,03,13,07,32,6.90
2015,03,13,07,33,6.80
2015,03,13,07,34,6.80
2015,03,13,07,35,6.80
2015,03,13,07,36,6.80
2015,03,13,07,37,6.80
2015,03,13,07,38,6.90
2015,03,13,07,39,6.90
2015,03,13,07,40,6.90
2015,03,13,07,41,7.00
2015,03,13,07,42,7.00
2015,03,13,07,43,7.00
2015,03,13,07,44,7.10
2015,03,13,07,45,7.10
2015,03,13,07,46,7.20
2015,03,13,07,47,7.20
2015,03,13,07,48,7.20
2015,03,13,07,49,7.20
2015,03,13,07,50,7.30
2015,03,13,07,51,7.30
2015,03,13,07,52,7.30
2015,03,13,07,53,7.30
2015,03,13,07,54,7.30
2015,03,13,07,55,7.30
2015,03,13,07,56,7.40
2015,03,13,07,57,7.40
2015,03,13,07,58,7.40
2015,03,13,07,59,7.40
2015,03,13,08,00,7.50
2015,03,13,08,01,7.40
2015,03,13,08,02,7.40
2015,03,13,08,03,7.40
2015,03,13,08,04,7.40
2015,03,13,08,05,7.30
2015,03,13,08,06,7.30
2015,03,13,08,07,7.30
2015,03,13,08,08,7.30
2015,03,13,08,09,7.40
2015,03,13,08,10,7.40
2015,03,13,08,11,7.50
2015,03,13,08,12,7.60
2015,03,13,08,13,7.60
2015,03,13,08,14,7.70
2015,03,13,08,15,7.70
2015,03,13,08,16,7.80
2015,03,13,08,17,7.80
2015,03,13,08,18,7.80
2015,03,13,08,19,7.90
2015,03,13,08,20,7.90
2015,03,13,08,21,7.90
2015,03,13,08,22,7.90
2015,03,13,08,23,8.00
2015,03,13,08,24,8.00
2015,03,13,08,25,8.00
2015,03,13,08,26,8.00
2015,03,13,08,27,8.00
2015,03,13,08,28,8.00
2015,03,13,08,29,8.00
2015,03,13,08,30,8.10
2015,03,13,08,31,8.10
2015,03,13,08,32,8.10
2015,03,13,08,33,8.20
2015,03,13,08,34,8.20
2015,03,13,08,35,8.30
2015,03,13,08,36,8.30
2015,03,13,08,37,8.30
2015,03,13,08,38,8.30
2015,03,13,08,39,8.40
2015,03,13,08,40,8.40
2015,03,13,08,41,8.40
2015,03,13,08,42,8.50
2015,03,13,08,43,8.50
2015,03,13,08,44,8.50
2015,03,13,08,45,8.60
2015,03,13,08,46,8.60
2015,03,13,08,47,8.60
2015,03,13,08,48,8.60
2015,03,13,08,49,8.60
2015,03,13,08,50,8.70
2015,03,13,08,51,8.70
2015,03,13,08,52,8.70
2015,03,13,08,53,8.70
2015,03,13,08,54,8.70
2015,03,13,08,55,8.70
2015,03,13,08,56,8.70
2015,03,13,08,57,8.70
2015,03,13,08,58,8.80
2015,03,13,08,59,8.80
2015,03,13,09,00,8.80
2015,03,13,09,01,8.80
2015,03,13,09,02,8.80
2015,03,13,09,03,8.90
2015,03,13,09,04,8.90
2015,03,13,09,05,8.90
2015,03,13,09,06,9.00
2015,03,13,09,07,9.10
2015,03,13,09,08,9.10
2015,03,13,09,09,9.20
2015,03,13,09,10,9.20
2015,03,13,09,11,9.30
2015,03,13,09,12,9.30
2015,03,13,09,13,9.40
2015,03,13,09,14,9.50
2015,03,13,09,15,9.60
2015,03,13,09,16,9.70
2015,03,13,09,17,9.70
2015,03,13,09,18,9.70
2015,03,13,09,19,9.80
2015,03,13,09,20,9.80
2015,03,13,09,21,9.80
2015,03,13,09,22,9.80
2015,03,13,09,23,9.80
2015,03,13,09,24,9.80
2015,03,13,09,25,9.80
2015,03,13,09,26,9.80
2015,03,13,09,27,9.80
2015,03,13,09,28,9.90
2015,03,13,09,29,9.90
2015,03,13,09,30,9.90
2015,03,13,09,31,9.90
2015,03,13,09,32,9.90
2015,03,13,09,33,9.90
2015,03,13,09,34,9.90
2015,03,13,09,35,9.90
2015,03,13,09,36,9.80
2015,03,13,09,37,9.90
2015,03,13,09,38,9.90
2015,03,13,09,39,9.90
2015,03,13,09,40,9.90
2015,03,13,09,41,9.90
2015,03,13,09,42,9.90
2015,03,13,09,43,9.80
2015,03,13,09,44,9.80
2015,03,13,09,45,9.90
2015,03,13,09,46,9.90
2015,03,13,09,47,9.90
2015,03,13,09,48,10.00
2015,03,13,09,49,10.00
2015,03,13,09,50,10.10
2015,03,13,09,51,10.20
2015,03,13,09,52,10.30
2015,03,13,09,53,10.30
2015,03,13,09,54,10.40
2015,03,13,09,55,10.50
2015,03,13,09,56,10.50
2015,03,13,09,57,10.50
2015,03,13,09,58,10.60
2015,03,13,09,59,10.60
2015,03,13,10,00,10.60
2015,03,13,10,01,10.50
2015,03,13,10,02,10.40
2015,03,13,10,03,10.40
2015,03,13,10,04,10.40
2015,03,13,10,05,10.30
2015,03,13,10,06,10.30
2015,03,13,10,07,10.30
2015,03,13,10,08,10.30
2015,03,13,10,09,10.30
2015,03,13,10,10,10.30
2015,03,13,10,11,10.30
2015,03,13,10,12,10.30
2015,03,13,10,13,10.40
2015,03,13,10,14,10.40
2015,03,13,10,15,10.50
2015,03,13,10,16,10.50
2015,03,13,10,17,10.60
2015,03,13,10,18,10.70
2015,03,13,10,19,10.70
2015,03,13,10,20,10.80
2015,03,13,10,21,10.80
2015,03,13,10,22,10.80
2015,03,13,10,23,10.80
2015,03,13,10,24,10.80
2015,03,13,10,25,10.80
2015,03,13,10,26,10.80
2015,03,13,10,27,10.80
2015,03,13,10,28,10.80
2015,03,13,10,29,10.80
2015,03,13,10,30,10.90
2015,03,13,10,31,10.90
2015,03,13,10,32,10.90
2015,03,13,10,33,11.00
2015,03,13,10,34,11.00
2015,03,13,10,35,11.10
2015,03,13,10,36,11.10
2015,03,13,10,37,11.20
2015,03,13,10,38,11.20
2015,03,13,10,39,11.30
2015,03,13,10,40,11.40
2015,03,13,10,41,11.50
2015,03,13,10,42,11.60
2015,03,13,10,43,11.70
2015,03,13,10,44,11.80
2015,03,13,10,45,11.90
2015,03,13,10,46,12.00
2015,03,13,10,47,12.10
2015,03,13,10,48,12.20
2015,03,13,10,49,12.40
2015,03,13,10,50,12.60
2015,03,13,10,51,12.80
2015,03,13,10,52,13.00
2015,03,13,10,53,13.20
2015,03,13,10,54,13.40
2015,03,13,10,55,13.50
2015,03,13,10,56,13.70
2015,03,13,10,57,13.80
2015,03,13,10,58,13.90
2015,03,13,10,59,14.00
2015,03,13,11,00,14.10
2015,03,13,11,01,14.20
2015,03,13,11,02,14.30
2015,03,13,11,03,14.30
2015,03,13,11,04,14.30
2015,03,13,11,05,14.30
2015,03,13,11,06,14.30
2015,03,13,11,07,14.30
2015,03,13,11,08,14.30
2015,03,13,11,09,14.30
2015,03,13,11,10,14.30
2015,03,13,11,11,14.40
2015,03,13,11,12,14.40
2015,03,13,11,13,14.30
2015,03,13,11,14,14.30
2015,03,13,11,15,14.30
2015,03,13,11,16,14.20
2015,03,13,11,17,14.20
2015,03,13,11,18,14.10
2015,03,13,11,19,14.10
2015,03,13,11,20,14.10
2015,03,13,11,21,14.00
2015,03,13,11,22,14.00
2015,03,13,11,23,14.00
2015,03,13,11,24,14.00
2015,03,13,11,25,14.00
2015,03,13,11,26,14.00
2015,03,13,11,27,14.00
2015,03,13,11,28,14.00
2015,03,13,11,29,14.00
2015,03,13,11,30,14.10
2015,03,13,11,31,14.10
2015,03,13,11,32,14.10
2015,03,13,11,33,14.10
2015,03,13,11,34,14.10
2015,03,13,11,35,14.10
2015,03,13,11,36,14.00
2015,03,13,11,37,14.00
2015,03,13,11,38,13.90
2015,03,13,11,39,13.90
2015,03,13,11,40,13.80
2015,03,13,11,41,13.80
2015,03,13,11,42,13.70
2015,03,13,11,43,13.70
2015,03,13,11,44,13.60
2015,03,13,11,45,13.60
2015,03,13,11,46,13.50
2015,03,13,11,47,13.40
2015,03,13,11,48,13.40
2015,03,13,11,49,13.30
2015,03,13,11,50,13.30
2015,03,13,11,51,13.30
2015,03,13,11,52,13.30
2015,03,13,11,53,13.30
2015,03,13,11,54,13.20
2015,03,13,11,55,13.20
2015,03,13,11,56,13.20
2015,03,13,11,57,13.10
2015,03,13,11,58,13.10
2015,03,13,11,59,13.10
2015,03,13,12,00,13.10
2015,03,13,12,01,13.00
2015,03,13,12,02,13.00
2015,03,13,12,03,13.00
2015,03,13,12,04,13.00
2015,03,13,12,05,13.00
2015,03,13,12,06,13.00
2015,03,13,12,07,13.00
2015,03,13,12,08,12.90
2015,03,13,12,09,12.90
2015,03,13,12,10,12.90
2015,03,13,12,11,12.90
2015,03,13,12,12,12.90
2015,03,13,12,13,12.90
2015,03,13,12,14,13.00
2015,03,13,12,15,13.00
2015,03,13,12,16,13.00
2015,03,13,12,17,13.00
2015,03,13,12,18,13.00
2015,03,13,12,19,13.00
2015,03,13,12,20,12.90
2015,03,13,12,21,12.90
2015,03,13,12,22,12.90
2015,03,13,12,23,12.90
2015,03,13,12,24,12.90
2015,03,13,12,25,12.90
2015,03,13,12,26,12.90
2015,03,13,12,27,13.00
2015,03,13,12,28,13.00
2015,03,13,12,29,13.00
2015,03,13,12,30,13.00
2015,03,13,12,31,13.00
2015,03,13,12,32,12.90
2015,03,13,12,33,12.90
2015,03,13,12,34,12.80
2015,03,13,12,35,12.80
2015,03,13,12,36,12.70
2015,03,13,12,37,12.70
2015,03,13,12,38,12.70
2015,03,13,12,39,12.60
2015,03,13,12,40,12.60
2015,03,13,12,41,12.60
2015,03,13,12,42,12.60
2015,03,13,12,43,12.60
2015,03,13,12,44,12.70
2015,03,13,12,45,12.70
2015,03,13,12,46,12.70
2015,03,13,12,47,12.70
2015,03,13,12,48,12.70
2015,03,13,12,49,12.70
2015,03,13,12,50,12.80
2015,03,13,12,51,12.80
2015,03,13,12,52,12.80
2015,03,13,12,53,12.80
2015,03,13,12,54,12.80
2015,03,13,12,55,12.90
2015,03,13,12,56,12.90
2015,03,13,12,57,12.90
2015,03,13,12,58,12.90
2015,03,13,12,59,13.00
2015,03,13,13,00,13.00
2015,03,13,13,01,13.10
2015,03,13,13,02,13.10
2015,03,13,13,03,13.20
2015,03,13,13,04,13.10
2015,03,13,13,05,13.10
2015,03,13,13,06,13.00
2015,03,13,13,07,12.90
2015,03,13,13,08,12.80
2015,03,13,13,09,12.70
2015,03,13,13,10,12.60
2015,03,13,13,11,12.50
2015,03,13,13,12,12.40
2015,03,13,13,13,12.40
2015,03,13,13,14,12.30
2015,03,13,13,15,12.30
2015,03,13,13,16,12.30
2015,03,13,13,17,12.30
2015,03,13,13,18,12.40
2015,03,13,13,19,12.50
2015,03,13,13,20,12.50
2015,03,13,13,21,12.60
2015,03,13,13,22,12.70
2015,03,13,13,23,12.80
2015,03,13,13,24,12.90
2015,03,13,13,25,13.00
2015,03,13,13,26,13.10
2015,03,13,13,27,13.20
2015,03,13,13,28,13.30
2015,03,13,13,29,13.30
2015,03,13,13,30,13.30
2015,03,13,13,31,13.30
2015,03,13,13,32,13.30
2015,03,13,13,33,13.20
2015,03,13,13,34,13.20
2015,03,13,13,35,13.10
2015,03,13,13,36,13.00
2015,03,13,13,37,12.90
2015,03,13,13,38,12.80
2015,03,13,13,39,12.70
2015,03,13,13,40,12.70
2015,03,13,13,41,12.70
2015,03,13,13,42,12.70
2015,03,13,13,43,12.70
2015,03,13,13,44,12.70
2015,03,13,13,45,12.70
2015,03,13,13,46,12.80
2015,03,13,13,47,12.80
2015,03,13,13,48,12.80
2015,03,13,13,49,12.80
2015,03,13,13,50,12.80
2015,03,13,13,51,12.80
2015,03,13,13,52,12.80
2015,03,13,13,53,12.90
2015,03,13,13,54,12.90
2015,03,13,13,55,12.90
2015,03,13,13,56,12.90
2015,03,13,13,57,12.80
2015,03,13,13,58,12.80
2015,03,13,13,59,12.80
2015,03,13,14,00,12.80
2015,03,13,14,01,12.80
2015,03,13,14,02,12.80
2015,03,13,14,03,12.80
2015,03,13,14,04,12.80
2015,03,13,14,05,12.80
2015,03,13,14,06,12.80
2015,03,13,14,07,12.80
2015,03,13,14,08,12.70
2015,03,13,14,09,12.70
2015,03,13,14,10,12.70
2015,03,13,14,11,12.60
2015,03,13,14,12,12.60
2015,03,13,14,13,12.50
2015,03,13,14,14,12.50
2015,03,13,14,15,12.50
2015,03,13,14,16,12.50
2015,03,13,14,17,12.60
2015,03,13,14,18,12.60
2015,03,13,14,19,12.70
2015,03,13,14,20,12.70
2015,03,13,14,21,12.80
2015,03,13,14,22,12.90
2015,03,13,14,23,12.90
2015,03,13,14,24,13.00
2015,03,13,14,25,13.00
2015,03,13,14,26,13.10
2015,03,13,14,27,13.20
2015,03,13,14,28,13.20
2015,03,13,14,29,13.30
2015,03,13,14,30,13.40
2015,03,13,14,31,13.40
2015,03,13,14,32,13.50
2015,03,13,14,33,13.60
2015,03,13,14,34,13.60
2015,03,13,14,35,13.70
2015,03,13,14,36,13.80
2015,03,13,14,37,13.80
2015,03,13,14,38,13.90
2015,03,13,14,39,14.00
2015,03,13,14,40,14.10
2015,03,13,14,41,14.10
2015,03,13,14,42,14.20
2015,03,13,14,43,14.30
2015,03,13,14,44,14.30
2015,03,13,14,45,14.40
2015,03,13,14,46,14.40
2015,03,13,14,47,14.50
2015,03,13,14,48,14.60
2015,03,13,14,49,14.60
2015,03,13,14,50,14.70
2015,03,13,14,51,14.70
2015,03,13,14,52,14.80
2015,03,13,14,53,14.80
2015,03,13,14,54,14.80
2015,03,13,14,55,14.80
2015,03,13,14,56,14.90
2015,03,13,14,57,14.90
2015,03,13,14,58,14.90
2015,03,13,14,59,14.90
2015,03,13,15,00,15.00
2015,03,13,15,01,15.00
2015,03,13,15,02,15.00
2015,03,13,15,03,15.00
2015,03,13,15,04,15.00
2015,03,13,15,05,15.00
2015,03,13,15,06,15.00
2015,03,13,15,07,15.00
2015,03,13,15,08,15.10
2015,03,13,15,09,15.10
2015,03,13,15,10,15.10
2015,03,13,15,11,15.10
2015,03,13,15,12,15.10
2015,03,13,15,13,15.10
2015,03,13,15,14,15.10
2015,03,13,15,15,15.10
2015,03,13,15,16,15.10
2015,03,13,15,17,15.10
2015,03,13,15,18,15.10
2015,03,13,15,19,15.10
2015,03,13,15,20,15.10
2015,03,13,15,21,15.10
2015,03,13,15,22,15.10
2015,03,13,15,23,15.10
2015,03,13,15,24,15.10
2015,03,13,15,25,15.10
2015,03,13,15,26,15.10
2015,03,13,15,27,15.10
2015,03,13,15,28,15.10
2015,03,13,15,29,15.10
2015,03,13,15,30,15.10
2015,03,13,15,31,15.20
2015,03,13,15,32,15.20
2015,03,13,15,33,15.20
2015,03,13,15,34,15.20
2015,03,13,15,35,15.20
2015,03,13,15,36,15.20
2015,03,13,15,37,15.20
2015,03,13,15,38,15.20
2015,03,13,15,39,15.10
2015,03,13,15,40,15.10
2015,03,13,15,41,15.10
2015,03,13,15,42,15.10
2015,03,13,15,43,15.10
2015,03,13,15,44,15.10
2015,03,13,15,45,15.10
2015,03,13,15,46,15.10
2015,03,13,15,47,15.10
2015,03,13,15,48,15.10
2015,03,13,15,49,15.10
2015,03,13,15,50,15.10
2015,03,13,15,51,15.10
2015,03,13,15,52,15.10
2015,03,13,15,53,15.10
2015,03,13,15,54,15.00
2015,03,13,15,55,15.00
2015,03,13,15,56,15.00
2015,03,13,15,57,15.00
2015,03,13,15,58,15.00
2015,03,13,15,59,15.00
2015,03,13,16,00,15.00
2015,03,13,16,01,15.00
2015,03,13,16,02,15.10
2015,03,13,16,03,15.10
2015,03,13,16,04,15.10
2015,03,13,16,05,15.00
2015,03,13,16,06,15.00
2015,03,13,16,07,15.00
2015,03,13,16,08,15.00
2015,03,13,16,09,15.00
2015,03,13,16,10,15.00
2015,03,13,16,11,14.90
2015,03,13,16,12,14.90
2015,03,13,16,13,14.90
2015,03,13,16,14,14.90
2015,03,13,16,15,14.90
2015,03,13,16,16,14.90
2015,03,13,16,17,14.90
2015,03,13,16,18,14.90
2015,03,13,16,19,14.90
2015,03,13,16,20,14.90
2015,03,13,16,21,14.90
2015,03,13,16,22,14.90
2015,03,13,16,23,14.90
2015,03,13,16,24,14.90
2015,03,13,16,25,14.90
2015,03,13,16,26,14.90
2015,03,13,16,27,14.90
2015,03,13,16,28,14.90
2015,03,13,16,29,14.90
2015,03,13,16,30,14.80
2015,03,13,16,31,14.80
2015,03,13,16,32,14.80
2015,03,13,16,33,14.80
2015,03,13,16,34,14.80
2015,03,13,16,35,14.80
2015,03,13,16,36,14.80
2015,03,13,16,37,14.80
2015,03,13,16,38,14.80
2015,03,13,16,39,14.80
2015,03,13,16,40,14.80
2015,03,13,16,41,14.80
2015,03,13,16,42,14.70
2015,03,13,16,43,14.70
2015,03,13,16,44,14.70
2015,03,13,16,45,14.70
2015,03,13,16,46,14.70
2015,03,13,16,47,14.70
2015,03,13,16,48,14.70
2015,03,13,16,49,14.70
2015,03,13,16,50,14.70
2015,03,13,16,51,14.60
2015,03,13,16,52,14.60
2015,03,13,16,53,14.60
2015,03,13,16,54,14.60
2015,03,13,16,55,14.60
2015,03,13,16,56,14.60
2015,03,13,16,57,14.60
2015,03,13,16,58,14.60
2015,03,13,16,59,14.60
2015,03,13,17,00,14.60
2015,03,13,17,01,14.50
2015,03,13,17,02,14.50
2015,03,13,17,03,14.50
2015,03,13,17,04,14.50
2015,03,13,17,05,14.50
2015,03,13,17,06,14.50
2015,03,13,17,07,14.40
2015,03,13,17,08,14.40
2015,03,13,17,09,14.40
2015,03,13,17,10,14.40
2015,03,13,17,11,14.40
2015,03,13,17,12,14.40
2015,03,13,17,13,14.40
2015,03,13,17,14,14.40
2015,03,13,17,15,14.50
2015,03,13,17,16,14.50
2015,03,13,17,17,14.50
2015,03,13,17,18,14.50
2015,03,13,17,19,14.50
2015,03,13,17,20,14.50
2015,03,13,17,21,14.40
2015,03,13,17,22,14.50
2015,03,13,17,23,14.50
2015,03,13,17,24,14.40
2015,03,13,17,25,14.40
2015,03,13,17,26,14.40
2015,03,13,17,27,14.40
2015,03,13,17,28,14.50
2015,03,13,17,29,14.50
2015,03,13,17,30,14.50
2015,03,13,17,31,14.50
2015,03,13,17,32,14.50
2015,03,13,17,33,14.50
2015,03,13,17,34,14.50
2015,03,13,17,35,14.50
2015,03,13,17,36,14.50
2015,03,13,17,37,14.60
2015,03,13,17,38,14.60